[[{"header":{"parameterUnit":"m.s-1","parameterCategory":1,"la1":30.2991,"la2":30.254,"lo1":-89.0895,"lo2":-89.0444,"dy":0.0017,"dx":0.0017,"nx":28,"ny":28,"refTime":"2024-04-08T09:00:00:Z","depth":0,"parameterNumber":2,"parameterNumberName":"U-component_of_WINDS"},"data":[0,0,0,0,0,0,0,0,0,0,0,0,0,0,0,0,0,0,0,0,0,0,0,0,0,0,0,0,0,0,0,0,0,0,0,0,0,0,0,0,0,0,0,0,0,0,0,0,0,0,0,0,0,0,0,0,0,0,-7.4366,-7.4367,0,-7.449,-7.4491,-7.4492,-7.4478,-7.4476,-7.4474,-7.4472,-7.4593,-7.4598,-7.4603,0,0,0,0,0,0,0,0,0,0,0,0,0,-7.4112,-7.4117,-7.4366,-7.4367,-7.4369,-7.4489,-7.4491,-7.4493,-7.4478,-7.4476,-7.4474,-7.4471,-7.4591,-7.4597,-7.4603,0,0,0,0,0,0,0,0,0,0,0,0,0,-7.4228,-7.4118,-7.4366,-7.4376,-7.4379,-7.4489,-7.4491,-7.4493,-7.4479,-7.4476,-7.4473,-7.447,-7.4589,-7.4597,-7.4604,-7.471,0,0,-7.4627,-7.4631,0,0,0,0,0,0,0,0,-7.4221,-7.4237,-7.4373,-7.4376,-7.4379,-7.4466,-7.4446,-7.4566,-7.448,-7.4441,-7.4472,-7.4469,-7.4553,-7.4563,-7.4593,-7.4716,-7.4721,-7.4628,-7.4633,-7.4636,-7.4638,0,0,0,0,0,0,0,-7.4213,-7.4231,-7.4415,-7.4375,-7.4379,-7.4373,-7.4387,-7.4469,-7.4511,-7.4444,-7.4443,-7.4458,-7.4553,-7.4585,-7.4595,-7.4723,-7.4628,-7.4635,-7.4639,-7.4642,-7.4937,-7.4941,0,0,0,0,0,0,-7.4203,-7.4225,-7.4411,-7.4418,-7.4291,-7.438,-7.4395,-7.444,-7.4511,-7.4519,-7.4461,-7.4457,-7.4574,-7.4586,-7.4599,-7.4726,-7.4636,-7.4643,-7.4647,-7.4934,-7.4938,-7.4942,0,0,0,0,0,0,-7.4198,-7.422,-7.4406,-7.4322,-7.4345,-7.4388,-7.4439,-7.4444,-7.4476,-7.4523,-7.453,-7.4486,-7.4572,-7.4589,-7.4683,-7.473,-7.4646,-7.4653,-7.493,-7.4935,-7.494,-7.4981,0,0,0,0,0,0,-7.4191,-7.4218,-7.426,-7.4323,-7.4349,-7.4488,-7.4442,-7.4449,-7.449,-7.4487,-7.4549,-7.4556,-7.4571,-7.4672,-7.469,-7.4739,-7.4659,-7.4926,-7.4933,-7.4938,-7.4976,-7.4987,-7.4997,0,0,0,0,0,-7.4182,-7.4265,-7.4262,-7.4284,-7.4403,-7.4491,-7.4506,-7.4523,-7.4494,-7.4535,-7.4566,-7.4554,-7.4723,-7.4681,-7.4702,-7.4754,-7.4923,-7.4931,-7.4938,-7.4971,-7.4985,-7.4996,0,0,0,0,0,0,-7.4204,-7.4274,-7.427,-7.4378,-7.4429,-7.4489,-7.4541,-7.4538,-7.4597,-7.4591,-7.4608,-7.4622,-7.4717,-7.4745,-7.4698,-7.4859,-7.4819,-7.4831,-7.4837,-7.485,-7.486,-7.485,-7.4666,0,0,0,0,0,-7.4223,-7.429,-7.4347,-7.4436,-7.4462,-7.4497,-7.4536,-7.4546,-7.4599,-7.4619,-7.4657,-7.4707,-7.4771,-7.4813,-7.4875,-7.4981,-7.4993,-7.5027,-7.5038,-7.5046,-7.5055,-7.5111,-7.5126,-7.4966,-7.4966,-7.4966,0,0,-7.4259,-7.4306,-7.4347,-7.4441,-7.4482,-7.455,-7.4515,-7.4589,-7.4639,-7.463,-7.472,-7.475,-7.4807,-7.4908,-7.4954,-7.4934,-7.5102,-7.5055,-7.5062,-7.5066,-7.512,-7.5135,-7.5149,-7.4971,-7.497,-7.4969,0,0,-7.436,-7.4404,-7.4481,-7.4524,-7.4587,-7.461,-7.4629,-7.469,-7.471,-7.4802,-7.4796,-7.4856,-7.4967,-7.5007,-7.5042,-7.5161,-7.5151,-7.5181,-7.5233,-7.5288,-7.53,-7.5312,-7.5351,-7.5365,-7.519,-7.519,-7.519,0,-7.4397,-7.4501,-7.4521,-7.4596,-7.4637,-7.4635,-7.4713,-7.4753,-7.4832,-7.4859,-7.4837,-7.4976,-7.5015,-7.5124,-7.5153,-7.5183,-7.5202,-7.5171,-7.5298,-7.5309,-7.532,-7.5357,-7.5372,-7.5193,-7.5193,-7.5192,-7.5192,0,-7.4542,-7.4614,-7.4669,-7.4747,-7.4795,-7.4871,-7.4901,-7.4947,-7.4953,-7.4978,-7.5071,-7.5118,-7.5188,-7.5216,-7.5222,-7.5326,-7.5311,-7.5294,-7.5252,-7.5337,-7.5373,-7.5388,-7.5197,-7.5196,-7.5195,-7.5195,0,0,-7.4657,-7.4748,-7.4767,-7.4802,-7.4873,-7.4928,-7.5003,-7.5075,-7.5112,-7.5168,-7.5229,-7.5324,-7.5309,-7.5349,-7.5359,-7.5408,-7.5496,-7.5384,-7.5386,-7.54,-7.561,-7.562,-7.5636,-7.5492,-7.5495,-7.5497,-7.5604,0,-7.4762,-7.4897,-7.4919,-7.5036,-7.5102,-7.5102,-7.5168,-7.5217,-7.5243,-7.5302,-7.533,-7.5396,-7.5372,-7.5396,-7.5444,-7.5475,-7.5537,-7.5468,-7.5546,-7.5549,-7.5528,-7.5656,-7.5667,-7.5765,-7.5618,-7.5621,-7.5622,0,-7.4902,-7.4963,-7.5088,-7.5149,-7.5177,-7.5236,-7.5302,-7.5359,-7.5415,-7.543,-7.5476,-7.5481,-7.5558,-7.5517,-7.5621,-7.5573,-7.5607,-7.5627,-7.5631,-7.5636,-7.5588,-7.566,-7.5797,-7.581,-7.5645,-7.5643,-7.5642,0,-7.497,-7.5083,-7.5172,-7.5203,-7.5277,-7.5318,-7.535,-7.5404,-7.5445,-7.5503,-7.553,-7.5596,-7.5631,-7.5681,-7.5703,-7.5672,-7.5805,-7.5766,-7.5818,-7.5817,-7.5842,-7.5839,-7.5983,-7.5871,-7.587,-7.587,-7.587,0,-7.5083,-7.5159,-7.5203,-7.5258,-7.5342,-7.5366,-7.5448,-7.5479,-7.5527,-7.5585,-7.5591,-7.5645,-7.5673,-7.5732,-7.575,-7.5832,-7.5849,-7.5861,-7.5864,-7.5859,-7.5857,-7.5878,-7.587,-7.5874,-7.5873,-7.5872,-7.5872,0,-7.5171,-7.5205,-7.5301,-7.5365,-7.5383,-7.5441,-7.5495,-7.5546,-7.5574,-7.5648,-7.5667,-7.5708,-7.5777,-7.5806,-7.5891,-7.5903,-7.5996,-7.5996,-7.5977,-7.5977,-7.6026,-7.6019,-7.6185,-7.6206,-7.6083,-7.6084,-7.6085,0,-7.5239,-7.5298,-7.5368,-7.5409,-7.5443,-7.5509,-7.5551,-7.5578,-7.5621,-7.569,-7.5733,-7.5803,-7.586,-7.597,-7.6006,-7.6071,-7.607,-7.6124,-7.6079,-7.6071,-7.6067,-7.6062,-7.6066,-7.613,-7.6131,-7.6132,-7.6133,0,-7.5356,-7.537,-7.5432,-7.5501,-7.5552,-7.5606,-7.5659,-7.5692,-7.5727,-7.5775,-7.5847,-7.5892,-7.5979,-7.6047,-7.6114,-7.6146,-7.6144,-7.6148,-7.6162,-7.6155,-7.6141,-7.6146,-7.5995,-7.6143,-7.6142,-7.6141,-7.6141,-7.614,-7.5434,-7.5485,-7.5542,-7.5611,-7.5655,-7.5705,-7.5756,-7.579,-7.5851,-7.5925,-7.5938,-7.6013,-7.6067,-7.6157,-7.6192,-7.6251,-7.6237,-7.6259,-7.6263,-7.6268,-7.6269,-7.6135,-7.6263,-7.6263,-7.6263,-7.6263,-7.6263,0,-7.5548,-7.5585,-7.5649,-7.5724,-7.5777,-7.5775,-7.5834,-7.5878,-7.5946,-7.5997,-7.6054,-7.6136,-7.6203,-7.6245,-7.6312,-7.6351,-7.6352,-7.6367,-7.6362,-7.6369,-7.6279,-7.6258,-7.6365,-7.6365,-7.6365,-7.6365,-7.6365,-7.6365,-7.5613,-7.5699,-7.572,-7.5827,-7.5863,-7.5939,-7.5973,-7.6018,-7.6059,-7.6151,-7.6207,-7.6235,-7.6283,-7.6353,-7.6414,-7.6424,-7.6447,-7.6463,-7.6472,-7.6386,-7.6376,-7.6365,-7.6346,-7.6469,-7.6469,-7.6556,-7.6557,-7.6558]},{"header":{"parameterUnit":"m.s-1","parameterCategory":1,"la1":30.2991,"la2":30.254,"lo1":-89.0895,"lo2":-89.0444,"dy":0.0017,"dx":0.0017,"nx":28,"ny":28,"refTime":"2024-04-08T09:00:00:Z","depth":0,"parameterNumber":3,"parameterNumberName":"V-component_of_WINDS"},"data":[0,0,0,0,0,0,0,0,0,0,0,0,0,0,0,0,0,0,0,0,0,0,0,0,0,0,0,0,0,0,0,0,0,0,0,0,0,0,0,0,0,0,0,0,0,0,0,0,0,0,0,0,0,0,0,0,0,0,6.6602,6.6602,0,6.6653,6.6653,6.6654,6.661,6.6609,6.6607,6.6605,6.6652,6.6655,6.6658,0,0,0,0,0,0,0,0,0,0,0,0,0,6.6464,6.6467,6.6602,6.6602,6.6603,6.6652,6.6653,6.6654,6.6611,6.6609,6.6606,6.6604,6.6652,6.6655,6.6658,0,0,0,0,0,0,0,0,0,0,0,0,0,6.652,6.6468,6.6602,6.6588,6.6587,6.6652,6.6653,6.6654,6.6611,6.6608,6.6606,6.6603,6.665,6.6655,6.6659,6.6739,0,0,6.6672,6.6674,0,0,0,0,0,0,0,0,6.6517,6.6525,6.6589,6.6589,6.6588,6.6623,6.6622,6.6682,6.6612,6.6602,6.6605,6.6602,6.6644,6.6649,6.6664,6.6742,6.6744,6.6673,6.6675,6.6677,6.6678,0,0,0,0,0,0,0,6.6513,6.6523,6.6622,6.659,6.6589,6.6578,6.6583,6.6633,6.6637,6.6602,6.6599,6.6606,6.6643,6.666,6.6665,6.6744,6.6673,6.6676,6.6679,6.6681,6.6892,6.6895,0,0,0,0,0,0,6.6512,6.652,6.662,6.6623,6.6546,6.6582,6.6588,6.6614,6.6637,6.6638,6.6609,6.6604,6.6654,6.666,6.6667,6.6764,6.6677,6.6681,6.6684,6.6889,6.6893,6.6896,0,0,0,0,0,0,6.6509,6.6521,6.6618,6.6571,6.6582,6.6588,6.6617,6.6616,6.6633,6.6641,6.6641,6.6625,6.6652,6.666,6.6722,6.6765,6.6683,6.6687,6.6886,6.6891,6.6895,6.6958,0,0,0,0,0,0,6.6505,6.652,6.6551,6.6572,6.6585,6.6674,6.662,6.6619,6.6641,6.6636,6.6657,6.6658,6.6651,6.6716,6.6727,6.6769,6.6691,6.6882,6.6888,6.6893,6.6952,6.6964,6.6974,0,0,0,0,0,6.65,6.6565,6.6553,6.6565,6.6624,6.6677,6.6684,6.6676,6.6645,6.6676,6.6682,6.6657,6.6759,6.6723,6.6734,6.6779,6.6879,6.6886,6.6893,6.6947,6.6961,6.6974,0,0,0,0,0,0,6.6547,6.6568,6.6554,6.6628,6.6652,6.6669,6.6708,6.6691,6.6722,6.6715,6.6703,6.6708,6.6774,6.6782,6.6742,6.6859,6.6814,6.6823,6.6851,6.6865,6.6876,6.6872,6.6694,0,0,0,0,0,6.6567,6.6608,6.6624,6.6687,6.67,6.6702,6.6725,6.6717,6.6739,6.6748,6.6758,6.678,6.6817,6.6841,6.6875,6.6953,6.6957,6.6989,6.7,6.701,6.7018,6.7061,6.7075,6.6918,6.6918,6.6918,0,0,6.6606,6.6622,6.6649,6.6697,6.6714,6.6757,6.6711,6.6757,6.6789,6.6755,6.6815,6.6823,6.6847,6.6918,6.6949,6.6927,6.7062,6.7018,6.7025,6.7028,6.7069,6.7084,6.7097,6.6923,6.6922,6.6921,0,0,6.67,6.6717,6.6773,6.6792,6.6819,6.682,6.6834,6.6855,6.686,6.6921,6.6897,6.6934,6.6997,6.7015,6.7033,6.7138,6.7116,6.7149,6.7206,6.7249,6.7261,6.7272,6.731,6.7324,6.7157,6.7157,6.7157,0,6.6745,6.681,6.6803,6.6853,6.6875,6.6849,6.6906,6.6923,6.696,6.6975,6.695,6.7031,6.7045,6.712,6.7146,6.7161,6.7176,6.7146,6.726,6.7271,6.7281,6.7317,6.7332,6.7161,6.7161,6.716,6.716,0,6.6865,6.6911,6.6953,6.6992,6.7018,6.7071,6.7071,6.7099,6.709,6.7094,6.7157,6.7173,6.7211,6.7228,6.7218,6.7303,6.7289,6.7262,6.7216,6.73,6.7334,6.7348,6.7167,6.7165,6.7164,6.7163,0,0,6.6988,6.7025,6.704,6.7058,6.7088,6.7122,6.7174,6.7214,6.7238,6.7265,6.7308,6.7364,6.7341,6.7361,6.7353,6.739,6.7473,6.7359,6.736,6.738,6.7569,6.7589,6.7605,6.746,6.7463,6.7465,6.7567,0,6.7085,6.7177,6.7173,6.7259,6.7302,6.7279,6.7324,6.7347,6.7353,6.7389,6.7395,6.7435,6.7401,6.7413,6.7449,6.7456,6.7511,6.7448,6.75,6.7502,6.7495,6.7622,6.7643,6.7739,6.758,6.7582,6.7584,0,6.7209,6.7243,6.7334,6.7359,6.7377,6.7418,6.7455,6.749,6.7515,6.7517,6.7541,6.7528,6.758,6.7534,6.7606,6.7564,6.7585,6.7592,6.7595,6.7599,6.7548,6.763,6.7769,6.7784,6.7605,6.7603,6.7601,0,6.7291,6.7359,6.7423,6.7439,6.7469,6.7499,6.7513,6.7536,6.7561,6.7592,6.7608,6.7645,6.7665,6.7694,6.7691,6.7658,6.7765,6.7718,6.7767,6.7768,6.779,6.7789,6.7935,6.7804,6.7804,6.7803,6.7803,0,6.7399,6.7455,6.746,6.7499,6.7563,6.7558,6.762,6.763,6.7652,6.7692,6.7674,6.7712,6.7706,6.7744,6.7742,6.7803,6.7811,6.7814,6.7813,6.7816,6.7816,6.7829,6.7822,6.7807,6.7806,6.7806,6.7805,0,6.7501,6.7506,6.7574,6.7599,6.7607,6.7652,6.7673,6.771,6.7715,6.7767,6.7779,6.7786,6.7831,6.7831,6.7881,6.7879,6.7954,6.7945,6.7946,6.7944,6.7994,6.799,6.8154,6.8175,6.803,6.8031,6.8032,0,6.7569,6.7613,6.7644,6.7671,6.7687,6.773,6.7756,6.7753,6.7781,6.7815,6.7848,6.7891,6.7925,6.7997,6.8006,6.8044,6.8036,6.8091,6.8042,6.8044,6.8038,6.8036,6.804,6.8101,6.8102,6.8104,6.8105,0,6.7691,6.7692,6.7731,6.7772,6.7805,6.7836,6.7865,6.7888,6.7888,6.792,6.7966,6.7993,6.8046,6.8089,6.8126,6.8139,6.8123,6.8121,6.8134,6.8138,6.8137,6.8139,6.7973,6.8116,6.8115,6.8114,6.8114,6.8113,6.7779,6.7817,6.7846,6.789,6.7913,6.7941,6.7978,6.7989,6.8028,6.8072,6.8068,6.8119,6.8145,6.8194,6.8211,6.8251,6.8231,6.8251,6.8256,6.8261,6.8267,6.8131,6.8257,6.8257,6.8257,6.8256,6.8256,0,6.79,6.7918,6.7959,6.8002,6.8038,6.8021,6.8053,6.8083,6.813,6.8156,6.8191,6.8245,6.8287,6.8301,6.8342,6.8371,6.8364,6.8382,6.8379,6.8383,6.8281,6.8266,6.8387,6.8387,6.8387,6.8387,6.8386,6.8386,6.7968,6.8033,6.8038,6.8114,6.813,6.8183,6.8203,6.8229,6.825,6.8312,6.8348,6.8357,6.8379,6.8421,6.8459,6.8462,6.8478,6.8499,6.8499,6.8403,6.839,6.8377,6.8363,6.8502,6.8503,6.8598,6.8599,6.8599]}]]